DW5977 Weather Reports


Display with metric or nautical units.
time (UTC)temp
F
wind
direction
speed
MPH
gust
MPH
rain 1hr
in
rain 24hr
in
rain mn
in
humidity
%
barometer
mb
20260904031503 70 0 0.0 0.0 0.00 0.61 0.61 92 1013.9
20260904031024 70 0 0.0 0.0 0.00 0.61 0.61 92 1013.8
20260904030503 71 0 0.0 0.0 0.00 0.61 0.61 92 1014.0
20260904030003 71 0 0.0 0.0 0.00 0.62 0.61 92 1014.0
20260904025503 71 0 0.0 0.0 0.00 0.62 0.61 92 1014.0
20260904025003 71 0 0.0 0.0 0.00 0.62 0.61 92 1014.0
20260904024503 71 0 0.0 0.0 0.00 0.62 0.61 92 1014.0
20260904024003 71 0 0.0 0.0 0.00 0.62 0.61 92 1013.9
20260904023503 71 0 0.0 0.0 0.00 0.62 0.61 92 1013.9
20260904023003 71 0 0.0 0.0 0.00 0.62 0.61 92 1013.9
20260904022503 71 294 0.0 1.0 0.00 0.62 0.61 92 1013.9
20260904022024 71 294 0.0 1.0 0.02 0.62 0.61 92 1013.9
20260904021503 71 0 0.0 0.0 0.18 0.62 0.61 92 1013.9
20260904021003 71 294 0.0 2.0 0.22 0.62 0.61 92 1013.9
20260904020503 71 294 0.0 2.0 0.29 0.62 0.61 92 1013.8
20260904020003 71 294 0.0 3.0 0.30 0.63 0.61 92 1013.7
20260904015503 71 294 1.0 3.0 0.30 0.63 0.61 91 1013.7
20260904015003 71 294 0.0 2.0 0.31 0.63 0.61 92 1013.8
20260904014503 71 294 0.0 2.0 0.32 0.63 0.61 91 1013.7
20260904014003 71 296 1.0 5.0 0.33 0.63 0.61 91 1013.6
20260904013524 71 298 1.0 5.0 0.33 0.65 0.61 91 1013.5
20260904013003 71 300 1.0 4.0 0.33 0.77 0.61 91 1013.5
20260904012503 71 301 1.0 3.0 0.33 0.81 0.61 91 1013.4
20260904012003 71 303 2.0 4.0 0.36 0.79 0.59 91 1013.4
20260904011503 71 305 2.0 4.0 0.22 0.63 0.43 91 1013.4
20260904011003 71 306 1.0 4.0 0.31 0.59 0.39 91 1013.3
20260904010503 71 307 0.0 3.0 0.29 0.52 0.32 91 1013.3
20260904010003 72 308 0.0 3.0 0.28 0.51 0.31 91 1013.1
20260904005503 72 308 1.0 5.0 0.28 0.51 0.31 90 1013.2
20260904005003 72 309 2.0 5.0 0.27 0.50 0.30 90 1012.9
20260904004503 72 311 2.0 5.0 0.26 0.49 0.29 90 1012.9
20260904004003 72 312 2.0 4.0 0.25 0.49 0.28 90 1012.9
20260904003524 72 311 2.0 4.0 0.25 0.49 0.28 90 1012.7
20260904003003 73 307 2.0 5.0 0.25 0.50 0.28 89 1012.7
20260904002503 73 299 2.0 5.0 0.26 0.51 0.28 89 1012.5
20260904002003 74 305 2.0 9.0 0.23 0.47 0.23 88 1012.7
20260904001503 74 323 1.0 9.0 0.21 0.46 0.21 88 1012.7
20260904001003 74 214 0.0 4.0 0.08 0.33 0.08 88 1013.0
20260904000503 74 247 2.0 8.0 0.03 0.29 0.03 87 1012.7
20260904000003 74 253 4.0 9.0 0.03 0.30 0.03 87 1012.8
20260903235503 75 256 2.0 9.0 0.03 0.31 0.03 87 1012.9
20260903235003 75 249 3.0 10.0 0.03 0.32 0.03 87 1012.8
20260903234503 75 249 3.0 10.0 0.03 0.33 0.03 87 1012.9
20260903234003 75 261 3.0 7.0 0.03 0.33 0.03 87 1012.8
20260903233503 75 266 2.0 6.0 0.03 0.33 0.03 86 1013.0
20260903233024 75 264 2.0 8.0 0.03 0.34 0.03 86 1013.1
20260903232503 76 243 3.0 8.0 0.02 0.39 0.02 85 1013.1
20260903232003 76 221 2.0 7.0 0.00 0.50 0.00 84 1013.0
20260903231503 76 213 2.0 5.0 0.00 0.56 0.00 84 1013.1
20260903231003 76 206 2.0 6.0 0.00 0.59 0.00 84 1013.0
20260903230503 76 204 2.0 8.0 0.00 0.59 0.00 84 1012.8
20260903230024 76 211 3.0 10.0 0.00 0.59 0.00 83 1013.1
20260903225503 76 217 3.0 10.0 0.00 0.59 0.00 83 1013.1
20260903225024 76 214 3.0 9.0 0.00 0.59 0.00 83 1013.1
20260903224524 76 213 3.0 9.0 0.00 0.59 0.00 83 1013.3
20260903224003 76 220 2.0 6.0 0.00 0.59 0.00 82 1013.2
20260903223503 76 231 2.0 7.0 0.00 0.59 0.00 82 1013.0
20260903223003 76 236 2.0 7.0 0.00 0.59 0.00 82 1012.9
20260903222503 76 231 3.0 9.0 0.00 0.59 0.00 82 1013.0
20260903222003 76 231 3.0 9.0 0.00 0.59 0.00 82 1013.0
20260903221503 77 235 3.0 8.0 0.00 0.59 0.00 82 1012.8
20260903221024 77 227 3.0 8.0 0.00 0.59 0.00 82 1012.8
20260903220503 77 218 2.0 9.0 0.00 0.59 0.00 82 1012.6
20260903220003 77 220 3.0 9.0 0.00 0.59 0.00 82 1012.6
20260903215524 77 221 4.0 9.0 0.00 0.59 0.00 81 1012.7
20260903215003 77 218 3.0 8.0 0.00 0.59 0.00 81 1012.6
20260903214503 77 211 3.0 8.0 0.00 0.59 0.00 81 1012.4
20260903214003 77 199 3.0 7.0 0.00 0.59 0.00 80 1012.3
20260903213503 77 197 3.0 7.0 0.00 0.59 0.00 80 1012.3
20260903213003 77 211 2.0 5.0 0.00 0.59 0.00 80 1012.3
20260903212503 77 211 2.0 5.0 0.00 0.59 0.00 79 1012.2
20260903212003 77 216 2.0 6.0 0.00 0.59 0.00 79 1012.5
20260903211524 77 218 2.0 6.0 0.00 0.59 0.00 79 1012.4
20260903211003 77 210 2.0 4.0 0.00 0.59 0.00 79 1012.4
20260903210524 77 215 2.0 6.0 0.00 0.59 0.00 80 1012.6
20260903210003 77 221 2.0 8.0 0.00 0.59 0.00 79 1012.6
20260903205503 77 217 3.0 8.0 0.00 0.59 0.00 79 1012.6
20260903205003 77 214 3.0 6.0 0.00 0.59 0.00 79 1012.7
20260903204503 77 204 2.0 5.0 0.00 0.59 0.00 79 1013.0
20260903204003 77 195 2.0 7.0 0.00 0.59 0.00 79 1013.0
20260903203524 77 211 3.0 9.0 0.00 0.59 0.00 79 1013.0
20260903203003 77 208 4.0 9.0 0.00 0.59 0.00 78 1012.9
20260903202524 77 198 4.0 9.0 0.00 0.59 0.00 77 1013.0
20260903202003 78 205 4.0 9.0 0.00 0.59 0.00 77 1013.2
20260903201503 78 217 3.0 8.0 0.00 0.59 0.00 77 1013.3
20260903201003 78 212 3.0 8.0 0.00 0.59 0.00 77 1013.4
20260903200503 78 206 3.0 9.0 0.00 0.59 0.00 77 1013.4
20260903200003 78 205 4.0 12.0 0.00 0.59 0.00 76 1013.5
20260903195524 78 205 4.0 12.0 0.00 0.59 0.00 76 1013.6
20260903195003 78 219 4.0 13.0 0.00 0.59 0.00 76 1013.5
20260903194503 78 217 5.0 13.0 0.00 0.59 0.00 76 1013.4
20260903194003 78 209 4.0 9.0 0.00 0.59 0.00 75 1013.4
20260903193503 78 208 4.0 11.0 0.00 0.59 0.00 75 1013.2
20260903193003 78 210 4.0 12.0 0.00 0.59 0.00 74 1013.6
20260903192503 79 208 4.0 12.0 0.00 0.59 0.00 74 1013.5
20260903192003 79 220 4.0 10.0 0.00 0.59 0.00 75 1013.8
20260903191503 78 234 4.0 10.0 0.00 0.59 0.00 75 1013.8
20260903191003 78 226 4.0 10.0 0.00 0.59 0.00 76 1013.8
20260903190503 78 232 4.0 11.0 0.00 0.59 0.00 76 1013.8
20260903190024 78 237 6.0 11.0 0.00 0.59 0.00 75 1013.6
20260903185524 78 241 6.0 12.0 0.00 0.59 0.00 76 1013.6
20260903185003 79 243 5.0 12.0 0.00 0.59 0.00 75 1013.7
20260903184524 79 226 4.0 11.0 0.00 0.59 0.00 76 1013.7
20260903184003 79 222 5.0 15.0 0.00 0.59 0.00 74 1013.6
20260903183503 79 230 6.0 15.0 0.00 0.59 0.00 75 1013.7
20260903183024 79 241 5.0 15.0 0.00 0.59 0.00 76 1013.8
20260903182524 78 246 5.0 12.0 0.00 0.59 0.00 75 1013.8
20260903182003 78 235 4.0 11.0 0.00 0.59 0.00 75 1013.8
20260903181503 79 218 4.0 10.0 0.00 0.59 0.00 75 1013.8
20260903181003 79 210 3.0 8.0 0.00 0.59 0.00 75 1013.7
20260903180503 79 226 3.0 9.0 0.00 0.59 0.00 76 1013.6
20260903180003 78 238 4.0 10.0 0.00 0.59 0.00 77 1013.8
20260903175503 78 233 4.0 10.0 0.00 0.59 0.00 76 1013.8
20260903175003 78 218 4.0 11.0 0.00 0.59 0.00 76 1013.8
20260903174503 78 212 5.0 12.0 0.00 0.59 0.00 75 1013.9
20260903174003 78 229 6.0 12.0 0.00 0.59 0.00 75 1014.0
20260903173503 78 238 6.0 13.0 0.00 0.59 0.00 76 1014.2
20260903173024 78 232 7.0 13.0 0.00 0.59 0.00 75 1014.2
20260903172504 79 234 6.0 12.0 0.00 0.59 0.00 75 1014.1
20260903172003 79 222 5.0 12.0 0.00 0.59 0.00 76 1014.0
20260903171503 79 226 4.0 13.0 0.00 0.59 0.00 79 1014.0
20260903171024 78 242 4.0 13.0 0.00 0.59 0.00 78 1013.9
20260903170524 78 240 5.0 15.0 0.00 0.59 0.00 79 1014.0
20260903170003 77 251 5.0 15.0 0.00 0.59 0.00 79 1014.1
20260903165503 77 243 4.0 14.0 0.00 0.59 0.00 79 1014.1
20260903165003 77 219 3.0 10.0 0.00 0.59 0.00 81 1014.1
20260903164503 76 244 3.0 11.0 0.00 0.59 0.00 82 1014.1
20260903164003 76 241 3.0 11.0 0.00 0.59 0.00 82 1014.0
20260903163524 75 225 3.0 10.0 0.00 0.59 0.00 82 1014.0
20260903163003 75 237 3.0 10.0 0.00 0.59 0.00 83 1014.1
20260903162503 75 245 4.0 10.0 0.00 0.59 0.00 83 1014.1
20260903162024 75 243 3.0 10.0 0.00 0.59 0.00 83 1014.3
20260903161503 75 228 3.0 8.0 0.00 0.59 0.00 83 1014.4
20260903161003 74 228 4.0 10.0 0.00 0.59 0.00 83 1014.4
20260903160524 74 224 4.0 10.0 0.00 0.59 0.00 83 1014.3
20260903160003 75 210 4.0 8.0 0.00 0.59 0.00 83 1014.4
20260903155503 75 213 3.0 8.0 0.00 0.59 0.00 83 1014.3
20260903155003 75 216 2.0 8.0 0.00 0.59 0.00 83 1014.4
20260903154503 75 227 3.0 8.0 0.00 0.59 0.00 83 1014.4
20260903154003 74 235 3.0 10.0 0.00 0.59 0.00 83 1014.5
20260903153503 74 224 4.0 11.0 0.00 0.59 0.00 83 1014.5
20260903153003 74 222 3.0 11.0 0.00 0.59 0.00 83 1014.6
20260903152503 75 224 3.0 10.0 0.00 0.59 0.00 83 1014.7
20260903152003 75 211 3.0 8.0 0.00 0.59 0.00 83 1014.6
20260903151503 75 211 4.0 9.0 0.00 0.59 0.00 82 1014.5
20260903151003 75 228 4.0 12.0 0.00 0.59 0.00 82 1014.5
20260903150503 75 232 3.0 12.0 0.00 0.59 0.00 82 1014.5
20260903150003 75 228 3.0 9.0 0.00 0.59 0.00 82 1014.5
20260903145503 75 229 3.0 9.0 0.00 0.59 0.00 83 1014.5
20260903145024 75 236 3.0 8.0 0.00 0.59 0.00 83 1014.5
20260903144503 74 230 3.0 8.0 0.00 0.59 0.00 84 1014.4
20260903144003 74 211 3.0 8.0 0.00 0.59 0.00 84 1014.5
20260903143503 74 204 3.0 8.0 0.00 0.59 0.00 85 1014.4
20260903143003 74 218 3.0 8.0 0.00 0.59 0.00 85 1014.6
20260903142503 74 233 3.0 10.0 0.00 0.59 0.00 86 1014.6
20260903142003 74 235 3.0 10.0 0.00 0.59 0.00 86 1014.5
20260903141503 74 227 3.0 7.0 0.00 0.59 0.00 87 1014.5
20260903141003 74 213 3.0 9.0 0.00 0.59 0.00 87 1014.5
20260903140503 74 202 4.0 9.0 0.00 0.59 0.00 87 1014.4
20260903140003 74 210 3.0 8.0 0.00 0.59 0.00 87 1014.5
20260903135503 73 231 3.0 8.0 0.00 0.59 0.00 88 1014.5
20260903135003 73 225 3.0 9.0 0.00 0.59 0.00 88 1014.5
20260903134503 73 214 3.0 9.0 0.00 0.59 0.00 88 1014.5
20260903134003 73 208 2.0 6.0 0.00 0.59 0.00 88 1014.6
20260903133503 73 210 3.0 9.0 0.00 0.59 0.00 88 1014.7
20260903133003 73 224 2.0 9.0 0.00 0.59 0.00 88 1014.6
20260903132503 73 242 2.0 7.0 0.00 0.59 0.00 89 1014.6
20260903132003 73 230 3.0 8.0 0.00 0.59 0.00 89 1014.6
20260903131503 73 215 3.0 8.0 0.00 0.59 0.00 89 1014.5
20260903131024 73 216 2.0 6.0 0.00 0.59 0.00 90 1014.6
20260903130503 73 233 2.0 7.0 0.00 0.59 0.00 91 1014.6
20260903130024 72 226 2.0 7.0 0.00 0.59 0.00 91 1014.6
20260903125503 72 214 2.0 5.0 0.00 0.59 0.00 92 1014.7
20260903125024 72 212 2.0 7.0 0.00 0.59 0.00 92 1014.8
20260903124503 72 211 2.0 7.0 0.00 0.59 0.00 92 1014.8
20260903124024 71 207 2.0 7.0 0.00 0.59 0.00 93 1014.8
20260903123503 71 198 1.0 5.0 0.00 0.59 0.00 93 1014.8
20260903123003 71 196 1.0 4.0 0.00 0.59 0.00 93 1014.7
20260903122503 71 194 0.0 3.0 0.00 0.59 0.00 93 1014.8
20260903122024 71 194 1.0 3.0 0.00 0.59 0.00 93 1014.8
20260903121503 71 194 1.0 3.0 0.00 0.59 0.00 93 1014.9
20260903121003 71 194 0.0 3.0 0.00 0.59 0.00 93 1014.8
20260903120503 70 194 0.0 3.0 0.00 0.59 0.00 93 1014.8
20260903120003 70 194 1.0 4.0 0.00 0.59 0.00 93 1014.8
20260903115503 70 194 1.0 4.0 0.00 0.59 0.00 93 1014.8
20260903115024 70 193 1.0 4.0 0.00 0.59 0.00 93 1014.8
20260903114503 70 192 1.0 4.0 0.00 0.59 0.00 93 1014.7
20260903114003 70 191 2.0 5.0 0.00 0.59 0.00 93 1014.6
20260903113503 70 191 1.0 5.0 0.00 0.59 0.00 93 1014.5
20260903113024 70 190 1.0 3.0 0.00 0.59 0.00 93 1014.4
20260903112503 70 190 1.0 3.0 0.00 0.59 0.00 93 1014.1
20260903112003 70 190 1.0 3.0 0.00 0.59 0.00 93 1014.1
20260903111503 70 189 1.0 3.0 0.00 0.59 0.00 93 1014.1
20260903111003 69 189 1.0 3.0 0.00 0.59 0.00 93 1014.0
20260903110503 69 189 1.0 3.0 0.00 0.59 0.00 93 1014.0
20260903110024 69 188 1.0 4.0 0.00 0.59 0.00 93 1014.0
20260903105524 69 188 1.0 4.0 0.00 0.59 0.00 93 1013.9
20260903105003 68 189 1.0 3.0 0.00 0.59 0.00 93 1013.7
20260903104503 68 189 0.0 2.0 0.00 0.59 0.00 93 1013.9
20260903104003 68 0 0.0 0.0 0.00 0.59 0.00 93 1013.6
20260903103503 67 0 0.0 0.0 0.00 0.59 0.00 93 1013.6
20260903103003 67 0 0.0 0.0 0.00 0.59 0.00 93 1013.5
20260903102503 67 0 0.0 0.0 0.00 0.59 0.00 93 1013.5
20260903102003 67 0 0.0 0.0 0.00 0.59 0.00 93 1013.5
20260903101503 67 0 0.0 0.0 0.00 0.59 0.00 93 1013.5
20260903101003 67 0 0.0 0.0 0.00 0.59 0.00 93 1013.6
20260903100524 66 0 0.0 0.0 0.00 0.59 0.00 93 1013.6
20260903100003 66 0 0.0 0.0 0.00 0.59 0.00 92 1013.7
20260903095503 66 0 0.0 0.0 0.00 0.59 0.00 92 1013.5
20260903095003 66 0 0.0 0.0 0.00 0.59 0.00 92 1013.6
20260903094524 66 0 0.0 0.0 0.00 0.59 0.00 92 1013.5
20260903094003 66 0 0.0 0.0 0.00 0.59 0.00 92 1013.4
20260903093503 66 0 0.0 0.0 0.00 0.59 0.00 92 1013.3
20260903093003 66 0 0.0 0.0 0.00 0.59 0.00 92 1013.3
20260903092524 66 0 0.0 0.0 0.00 0.59 0.00 92 1013.1
20260903092003 66 0 0.0 0.0 0.00 0.59 0.00 92 1013.1
20260903091503 66 0 0.0 0.0 0.00 0.59 0.00 92 1013.1
20260903091003 66 0 0.0 0.0 0.00 0.59 0.00 92 1013.1
20260903090503 66 0 0.0 0.0 0.00 0.59 0.00 92 1013.2
20260903090003 66 0 0.0 0.0 0.00 0.59 0.00 91 1013.3
20260903085503 66 0 0.0 0.0 0.00 0.59 0.00 91 1013.3
20260903085003 66 0 0.0 0.0 0.00 0.59 0.00 91 1013.2
20260903084503 66 0 0.0 0.0 0.00 0.59 0.00 91 1013.0
20260903084003 66 0 0.0 0.0 0.00 0.59 0.00 91 1013.1
20260903083524 66 0 0.0 0.0 0.00 0.59 0.00 91 1013.1
20260903083003 66 0 0.0 0.0 0.00 0.59 0.00 91 1013.2
20260903082503 67 0 0.0 0.0 0.00 0.59 0.00 91 1013.3
20260903082003 67 0 0.0 0.0 0.00 0.59 0.00 91 1013.1
20260903081503 67 0 0.0 0.0 0.00 0.59 0.00 91 1012.9
20260903081024 67 0 0.0 0.0 0.00 0.59 0.00 91 1012.9
20260903080503 67 0 0.0 0.0 0.00 0.59 0.00 90 1012.8
20260903080003 67 0 0.0 0.0 0.00 0.59 0.00 90 1012.8
20260903075503 67 0 0.0 0.0 0.00 0.59 0.00 90 1012.8
20260903075003 68 0 0.0 0.0 0.00 0.59 0.00 90 1012.8
20260903074524 68 0 0.0 0.0 0.00 0.59 0.00 90 1012.9
20260903074003 68 0 0.0 0.0 0.00 0.59 0.00 90 1012.8
20260903073524 68 0 0.0 0.0 0.00 0.59 0.00 90 1012.8
20260903073004 68 189 0.0 1.0 0.00 0.59 0.00 90 1012.7
20260903072503 68 189 0.0 1.0 0.00 0.59 0.00 89 1012.8
20260903072024 68 189 0.0 1.0 0.00 0.59 0.00 89 1012.8
20260903071503 69 0 0.0 0.0 0.00 0.59 0.00 89 1012.6
20260903071003 69 189 0.0 2.0 0.00 0.59 0.00 89 1012.7
20260903070503 69 189 0.0 2.0 0.00 0.59 0.00 89 1012.6
20260903070003 69 189 1.0 3.0 0.00 0.59 0.00 89 1012.9
20260903065503 69 189 1.0 4.0 0.00 0.59 0.00 89 1013.0
20260903065003 69 189 1.0 4.0 0.00 0.59 0.00 89 1013.1
20260903064503 69 189 2.0 4.0 0.00 0.59 0.00 89 1013.2
20260903064003 69 195 2.0 6.0 0.00 0.59 0.00 89 1013.3
20260903063503 69 206 2.0 9.0 0.00 0.59 0.00 89 1013.3
20260903063003 69 207 3.0 11.0 0.00 0.59 0.00 89 1013.2
20260903062503 69 191 3.0 11.0 0.00 0.59 0.00 89 1013.4
20260903062003 69 179 3.0 11.0 0.00 0.59 0.00 89 1013.5
20260903061503 69 185 3.0 10.0 0.00 0.59 0.00 90 1013.4
20260903061003 69 190 4.0 10.0 0.00 0.59 0.00 90 1013.3
20260903060503 69 193 4.0 10.0 0.00 0.59 0.00 90 1013.4
20260903060003 69 190 3.0 9.0 0.00 0.59 0.00 91 1013.3
20260903055503 69 187 2.0 8.0 0.00 0.59 0.00 91 1013.2
20260903055024 69 186 2.0 6.0 0.00 0.59 0.00 91 1013.1
20260903054503 69 185 2.0 7.0 0.00 0.59 0.00 91 1013.0
20260903054003 69 183 2.0 7.0 0.00 0.59 0.00 91 1013.1
20260903053503 69 181 2.0 7.0 0.00 0.59 0.00 91 1013.1
20260903053003 69 183 1.0 7.0 0.00 0.59 0.00 91 1013.5
20260903052524 69 187 1.0 6.0 0.00 0.59 0.00 91 1013.4
20260903052003 69 187 1.0 3.0 0.00 0.59 0.00 91 1013.5
20260903051504 69 187 1.0 3.0 0.00 0.59 0.00 91 1013.3
20260903051004 69 187 1.0 3.0 0.00 0.59 0.00 91 1013.6
20260903050503 69 187 1.0 4.0 0.00 0.59 0.00 91 1013.3
20260903050003 69 187 2.0 5.0 0.00 0.59 0.00 91 1013.5
20260903045503 69 187 2.0 5.0 0.00 0.59 0.00 91 1013.4
20260903045003 69 186 2.0 6.0 0.00 0.59 0.00 91 1013.4
20260903044503 69 185 3.0 6.0 0.00 0.59 0.00 91 1013.5
20260903044003 69 184 2.0 5.0 0.00 0.59 0.00 91 1013.5
20260903043503 69 182 2.0 6.0 0.00 0.59 0.00 91 1013.3
20260903043003 69 180 2.0 7.0 0.00 0.59 0.00 91 1013.4
20260903042503 69 181 2.0 7.0 0.00 0.59 0.00 91 1013.0
20260903042003 68 181 2.0 5.0 0.00 0.59 0.00 91 1012.9
20260903041503 68 179 2.0 5.0 0.00 0.59 0.00 91 1013.1
20260903041003 68 178 2.0 5.0 0.00 0.59 0.00 91 1012.9
20260903040503 68 176 1.0 5.0 0.00 0.59 0.00 91 1012.8
20260903040003 68 177 2.0 5.0 0.01 0.59 0.00 91 1012.7
20260903035524 68 177 2.0 5.0 0.01 0.59 0.59 91 1012.6
20260903035024 68 178 1.0 4.0 0.01 0.59 0.59 91 1012.4
20260903034503 68 178 1.0 4.0 0.01 0.59 0.59 91 1012.5
20260903034003 68 177 1.0 5.0 0.01 0.59 0.59 91 1012.6
20260903033503 69 177 1.0 5.0 0.01 0.59 0.59 91 1012.7
20260903033003 69 177 2.0 6.0 0.01 0.59 0.59 91 1012.8
20260903032503 69 176 2.0 6.0 0.01 0.59 0.59 91 1013.0
20260903032003 69 180 2.0 7.0 0.01 0.59 0.59 91 1013.1